Regional Weather Roundup
Issued by NWS Upton, NY

Current Version | Previous Version | Graphics & Text | Print | Product List | Glossary Off
Versions: 1 2 3 4 5 6 7 8 9 10 11 12 13 14 15 16 17 18 19 20 21 22 23 24 25 26 27 28 29 30 31 32 33 34 35 36 37 38 39 40 41 42 43 44 45 46 47 48 49 50

000
ASUS41 KOKX 171405
RWROKX

Regional Weather Roundup
National Weather Service New York NY
900 AM EST SAT FEB 17 2018

Note: "FAIR" indicates few or no clouds below 12,000 feet with no
significant weather and/or obstructions to visibility.

NYZ071-072-176-178-NJZ106-104-171500-
New York City Metro Area

CITY           SKY/WX    TMP DP  RH WIND       PRES   REMARKS
Central Park   FAIR      32  16  51 CALM      30.44S
Bronx Bot Gard   N/A     32  18  55 W2        30.42F
Bronx Lehman C   N/A     32  18  55 N3          N/A
LaGuardia Arpt PTSUNNY   33  17  51 N6        30.42S WCI  28
Queens College   N/A     32  18  55 NE6         N/A  WCI  26
Kennedy Intl   PTSUNNY   33  18  53 N12       30.43S WCI  24
Breezy Point     N/A    N/A N/A N/A NE7         N/A
Brooklyn Coll    N/A     32  18  55 N6          N/A  WCI  26
Staten Island    N/A     32  18  55 N6          N/A  WCI  26
Newark/Liberty PTSUNNY   33  15  47 N8        30.42S WCI  26
Teterboro      FAIR      31  16  54 NW7       30.42S WCI  24
$$

NYZ177-179-078>081-171500-
Long Island New York

CITY           SKY/WX    TMP DP  RH WIND       PRES   REMARKS
Jones Beach      N/A     32 N/A N/A NE10        N/A  WCI  24
Wantagh          N/A     34  18  51 NE9         N/A  WCI  26
Hempstead        N/A     32  21  64 NW6       30.44S WCI  26
Matinecock Pt    N/A     32 N/A N/A NE8         N/A  WCI  25
Farmingdale    FAIR      33  19  56 NE10      30.42S WCI  25
MacArthur/ISP  PTSUNNY   34  19  54 NE7       30.41S WCI  28
Shirley        FAIR      35  18  49 N6        30.42S WCI  30
Mt Sinai Harb    N/A    N/A N/A N/A NE6         N/A
Westhampton    FAIR      34  14  43 NE9       30.44R WCI  27
East Hampton   FAIR      32  12  43 N6        30.42S WCI  26
Southold         N/A     32  16  51 N7          N/A  WCI  26
Montauk          N/A     34  10  37 N8        30.43R WCI  27
$$

NYZ052-065-067-171500-
Hudson Valley

CITY           SKY/WX    TMP DP  RH WIND       PRES   REMARKS
White Plains   FAIR      30  17  58 N5        30.39S WCI  25
Larchmont Harb   N/A    N/A N/A N/A N5          N/A
Croton On Huds   N/A    N/A N/A N/A W1          N/A
Somers           N/A     30  18  59 E5          N/A  WCI  25
Brewster         N/A     28  16  59 E2          N/A
Newburgh       MOSUNNY   27  19  74 CALM      30.40S
Montgomery     FAIR      27  15  61 S6        30.39S WCI  20
Otisville        N/A     27  16  63 S1          N/A
Warwick          N/A     27  14  59 W1          N/A
Suffern          N/A     28  18  64 CALM        N/A
Poughkeepsie   FAIR      29  16  58 CALM      30.41R
Albany         FAIR      27  14  58 NW8       30.39F WCI  19
$$

NJZ001-105-106-008-010-013-015-019>022-104-171500-
New Jersey

CITY           SKY/WX    TMP DP  RH WIND       PRES   REMARKS
Newark/Liberty PTSUNNY   33  15  47 N8        30.42S WCI  26
Teterboro      FAIR      31  16  54 NW7       30.42S WCI  24
Caldwell       FAIR      29  15  56 NE6       30.42F WCI  23
Somerville     FAIR      30  16  56 N6        30.39F WCI  24
Linden         FAIR      32  15  48 CALM      30.43S
Perth Amboy      N/A    N/A N/A N/A NE8         N/A
Sussex         FAIR      27  16  63 CALM      30.38F
Andover          N/A     26  15  63 VRB3      30.38F
Trenton        FAIR      30  15  53 NE9       30.39S WCI  22
Millville      FAIR      33  17  51 NE8       30.39F WCI  26
Atlantic City  FAIR      34  19  54 E10       30.39F WCI  26
Wrightstown    FAIR      32  17  54 NE6       30.38R WCI  27
Toms River     FAIR      33  19  56 NE8       30.42R WCI  26
Belmar         FAIR      32  20  61 N8        30.41S WCI  25
$$

PAZ047>061-062-071-171500-
Eastern Pennsylvania

CITY           SKY/WX    TMP DP  RH WIND       PRES   REMARKS
Philadelphia   PTSUNNY   32  15  49 NE9       30.41S WCI  24
Allentown      FAIR      30  16  56 NE9       30.39S WCI  22
Scranton       FAIR      25  15  66 VRB5      30.33F WCI  19
$$

CTZ002-004>006-009-010-012-RIZ004-006-007-MAZ004-011-015-171500-
Southern New England

 In CT

CITY           SKY/WX    TMP DP  RH WIND       PRES   REMARKS
Bradley Intl   FAIR      30  13  49 N8        30.41R WCI  22
Hartford       FAIR      31  14  49 N7        30.43R WCI  24
Danbury        FAIR      30  17  58 E5        30.41R WCI  25
Wtrbury/Oxford FAIR      27  17  66 N10       30.38S WCI  17
Norwalk Harbor   N/A    N/A N/A N/A NE7         N/A
Bridgeport     FAIR      33  17  51 NE6       30.43R WCI  28
Meriden        FAIR      31  13  47 N8        30.42R WCI  23
New Haven      FAIR      33  15  47 N12       30.42R WCI  24
Chester        FAIR      32  12  43 NE7       30.39F WCI  26
Groton         FAIR      34   9  35 N8        30.42R WCI  27
Willimantic    FAIR      30  11  45 CALM      30.42R

 In RI

CITY           SKY/WX    TMP DP  RH WIND       PRES   REMARKS
Providence     FAIR      32  14  47 N8        30.43R WCI  25
Block Island   FAIR      32  17  54 NE7       30.43R WCI  26
Westerly       FAIR      33  10  38 VRB5      30.42R WCI  29

In MA

CITY           SKY/WX    TMP DP  RH WIND       PRES   REMARKS
Boston         FAIR      30   7  37 NW12      30.43R WCI  20
Worcester      FAIR      26   9  48 NE6       30.34S WCI  19
Westfield      FAIR      29  13  51 VRB3      30.40S
Provincetown   FAIR      31  18  58 N8        30.44R WCI  23
Nantucket      FAIR      34  19  54 N16       30.41R WCI  24
$$

ANZ330-335-338-340-345-350-353-355-171500-
Coastal Marine Observations


STATION/POSITION TIME  SKY/WX   TEMP    WIND        PRES    VSBY  WAVE
                                AIR SEA DIR/SP/G                  HT/PER
                 (UTC)          (F)     (DEG/KT/KT) (MB)    (MI)  (FT/S)
NY Harb Entrance 1350            33 39   30/ 14/ 16 1029.3          2/ 8
20 S Fire Island 1350            34 42   40/ 14/ 16 1029.4          3/ 4
15 E Barnegat Li 1330               41                N/A           3/ 5
Hudson Canyon    1350            39 46   70/ 12/ 16 1028.7          5/ 6
Kings Point      1330            30 36   40/  6/  7 1031.0
Execution Rocks  NOT AVBL
Western LI Sound NOT AVBL
Central LI Sound 1330            32      20/  8/ 10   N/A           1
Robbins Reef     1342            30     360/  7/  8 1030.7
$$


>>>>>>>>>>>>>>>>>>>>>>>>>>>> KEY <<<<<<<<<<<<<<<<<<<<<<<<<<<
>                                                          <
>     SKY/WX - Sky Condition/Present Weather               <
>     TMP    - Temperature in Fahrenheit                   <
>     DP     - Dew Point in Fahrenheit                     <
>     RH     - Relative Humidity in Percent                <
>     WIND   - Direction (from) and Speed in MPH           <
>     PRES   - Mean Sea Level Pressure (inches of Hg)      <
>     WCI    - Wind Chill Index                            <
>     VSB    - Visibility in Miles                         <
>     HX     - Heat Index                                  <
>     TC     - Temperature in Celsius                      <
>     VRB    - Varibale Wind Direction                     <
>                                                          <
>>>>>>>>>>>>>>>>>>>>>>>>>>>> KEY <<<<<<<<<<<<<<<<<<<<<<<<<<<



USA.gov is the U.S. government's official web portal to all federal, state and local government web resources and services.